Location: Colorado Springs
(38.8340°N, 104.8210°W)
Time: 19:46:27
(UTC-06:00)

ISS - Pass Details

Date: 12 October 2017
Orbit: 401 x 408 km, 51.6° (Epoch: 19 October)

Event Time Altitude Azimuth Distance (km) Brightness Sun altitude
Rises 20:42:31 0° 302° (WNW) 2,325 1.1 -27.5°
Reaches altitude 10° 20:44:40 10° 295° (WNW) 1,464 -0.1 -27.9°
Enters shadow 20:45:48 19° 286° (WNW) 1,045 -1.0 -28.1°
